DW5846 Weather Reports


Display with metric or nautical units.
time (UTC)temp
F
wind
direction
speed
MPH
gust
MPH
rain 1hr
in
rain 24hr
in
rain mn
in
humidity
%
barometer
mb
20260507083103 45 257 2.0 8.0 0.00 0.00 0.00 71 1012.5
20260507081556 45 249 1.0 5.0 0.00 0.00 0.00 71 1012.6
20260507080119 45 264 2.0 5.0 0.00 0.00 0.00 70 1012.8
20260507074601 44 259 1.0 3.0 0.00 0.00 0.00 69 1012.8
20260507073059 44 262 1.0 3.0 0.00 0.00 0.00 67 1013.0
20260507071600 44 257 1.0 3.0 0.00 0.00 0.00 64 1013.3
20260507070046 44 256 0.0 2.0 0.00 0.00 0.00 63 1013.4
20260507064550 45 256 0.0 2.0 0.00 0.00 0.00 61 1013.6
20260507063042 45 251 0.0 2.0 0.00 0.00 0.00 59 1013.8
20260507061541 46 259 0.0 3.0 0.00 0.00 0.00 55 1013.9
20260507060039 47 246 1.0 2.0 0.00 0.00 0.00 54 1014.0
20260507054548 47 250 1.0 2.0 0.00 0.00 0.00 53 1013.9
20260507053045 48 252 1.0 4.0 0.00 0.00 0.00 51 1013.9
20260507051533 46 243 1.0 4.0 0.00 0.00 0.00 54 1013.9
20260507050030 39 260 0.0 2.0 0.00 0.00 0.00 69 1014.0
20260507044529 37 237 0.0 0.0 0.00 0.00 0.00 77 1014.2
20260507043035 36 237 0.0 1.0 0.00 0.00 0.00 76 1014.1
20260507041527 35 236 0.0 0.0 0.00 0.00 0.00 74 1014.2
20260507040026 36 236 0.0 0.0 0.00 0.00 0.00 73 1014.3
20260507034526 36 236 0.0 0.0 0.00 0.00 0.00 71 1014.3
20260507033026 37 236 0.0 0.0 0.00 0.00 0.00 69 1014.5
20260507031525 38 236 0.0 0.0 0.00 0.00 0.00 67 1014.5
20260507030025 40 236 0.0 0.0 0.00 0.00 0.00 66 1014.5
20260507024524 41 236 0.0 0.0 0.00 0.00 0.00 63 1014.4
20260507023028 42 236 0.0 0.0 0.00 0.00 0.00 57 1014.3
20260507021523 44 236 0.0 0.0 0.00 0.00 0.00 54 1014.2
20260507020025 46 236 0.0 0.0 0.00 0.00 0.00 50 1014.0
20260507014522 49 236 0.0 0.0 0.00 0.00 0.00 49 1014.0
20260507013033 51 236 0.0 0.0 0.00 0.00 0.00 47 1014.0
20260507011534 55 236 0.0 0.0 0.00 0.00 0.00 38 1013.9
20260507010021 57 236 0.0 1.0 0.00 0.00 0.00 32 1014.0
20260507004521 58 241 0.0 3.0 0.00 0.00 0.00 29 1014.0
20260507003020 58 328 0.0 4.0 0.00 0.00 0.00 30 1014.1
20260507001520 59 299 0.0 6.0 0.00 0.00 0.00 30 1014.1
20260507000019 59 20 1.0 4.0 0.00 0.00 0.00 29 1014.2
20260506234521 59 296 1.0 7.0 0.00 0.00 0.00 29 1014.4
20260506233018 59 326 1.0 7.0 0.00 0.00 0.00 28 1014.4
20260506231517 61 254 1.0 5.0 0.00 0.00 0.00 30 1014.5
20260506230017 61 245 1.0 9.0 0.00 0.00 0.00 29 1014.6
20260506224524 62 289 3.0 11.0 0.00 0.00 0.00 27 1014.7
20260506223016 62 249 2.0 12.0 0.00 0.00 0.00 29 1014.7
20260506221515 62 244 2.0 13.0 0.00 0.00 0.00 32 1014.8
20260506220014 62 215 5.0 12.0 0.00 0.00 0.00 24 1015.1
20260506214513 63 227 2.0 8.0 0.00 0.00 0.00 26 1015.2
20260506213019 61 257 2.0 8.0 0.00 0.00 0.00 30 1015.2
20260506211515 61 241 6.0 13.0 0.00 0.00 0.00 27 1015.5
20260506210012 61 247 2.0 9.0 0.00 0.00 0.00 29 1015.6
20260506204507 60 224 2.0 8.0 0.00 0.00 0.00 27 1015.8
20260506203006 61 254 3.0 16.0 0.00 0.00 0.00 36 1016.2
20260506201505 59 326 3.0 9.0 0.00 0.00 0.00 30 1016.3
20260506200008 58 256 3.0 9.0 0.00 0.00 0.00 35 1016.4
20260506194503 59 318 3.0 7.0 0.00 0.00 0.00 29 1016.5
20260506193002 60 243 2.0 10.0 0.00 0.00 0.00 35 1016.5
20260506191503 60 248 3.0 9.0 0.00 0.00 0.00 32 1016.9
20260506190100 59 240 2.0 10.0 0.00 0.00 0.00 35 1016.8
20260506184602 59 301 3.0 10.0 0.00 0.00 0.00 29 1017.0
20260506183105 58 260 3.0 10.0 0.00 0.00 0.00 32 1017.2
20260506181600 58 29 3.0 10.0 0.00 0.00 0.00 30 1017.2
20260506180055 56 224 2.0 9.0 0.00 0.00 0.00 35 1017.3
20260506174605 56 304 1.0 10.0 0.00 0.00 0.00 38 1017.7
20260506173055 56 274 2.0 8.0 0.00 0.00 0.00 38 1017.7
20260506171547 55 237 4.0 13.0 0.00 0.00 0.00 41 1017.9
20260506170048 55 310 1.0 6.0 0.00 0.00 0.00 36 1018.1
20260506164548 54 331 2.0 9.0 0.00 0.00 0.00 40 1018.2
20260506163057 54 47 1.0 7.0 0.00 0.00 0.00 37 1018.3
20260506161542 53 245 3.0 10.0 0.00 0.00 0.00 37 1018.4
20260506160041 54 310 1.0 9.0 0.00 0.00 0.00 38 1018.2
20260506154544 54 244 2.0 8.0 0.00 0.00 0.00 39 1018.2
20260506153036 53 7 2.0 9.0 0.00 0.00 0.00 40 1018.1
20260506151541 53 315 3.0 10.0 0.00 0.00 0.00 38 1018.1
20260506150033 52 30 0.0 5.0 0.00 0.00 0.00 45 1018.2
20260506144531 51 187 0.0 7.0 0.00 0.00 0.00 43 1018.2
20260506143028 51 263 0.0 5.0 0.00 0.00 0.00 49 1018.3
20260506141526 50 239 0.0 4.0 0.00 0.00 0.00 48 1018.2
20260506140029 49 277 1.0 4.0 0.00 0.00 0.00 50 1018.1
20260506134520 47 266 0.0 2.0 0.00 0.00 0.00 56 1017.9
20260506133020 45 338 0.0 3.0 0.00 0.00 0.00 61 1017.7
20260506131520 43 265 0.0 3.0 0.00 0.00 0.00 62 1017.7
20260506130021 41 242 0.0 2.0 0.00 0.00 0.00 67 1017.5
20260506124517 39 41 0.0 0.0 0.00 0.00 0.00 76 1017.4
20260506123013 38 42 0.0 0.0 0.00 0.00 0.00 74 1017.0
20260506121510 37 41 0.0 0.0 0.00 0.00 0.00 75 1016.8
20260506120012 33 41 0.0 0.0 0.00 0.00 0.00 78 1016.6
20260506114506 33 41 0.0 0.0 0.00 0.00 0.00 76 1016.4
20260506113004 34 41 0.0 0.0 0.00 0.00 0.00 75 1016.2
20260506111501 35 41 0.0 0.0 0.00 0.00 0.00 73 1016.2
20260506110105 35 42 0.0 0.0 0.00 0.00 0.00 72 1016.0
20260506110002 35 41 0.0 0.0 0.00 0.00 0.00 72 1016.0
20260506104608 35 42 0.0 1.0 0.00 0.00 0.00 73 1016.1
20260506103105 35 42 0.0 0.0 0.00 0.00 0.00 73 1016.1
20260506101618 36 41 0.0 0.0 0.00 0.00 0.00 71 1015.9
20260506100051 37 42 0.0 0.0 0.00 0.00 0.00 68 1015.8
20260506094548 38 41 0.0 0.0 0.00 0.00 0.00 65 1015.6
20260506093045 39 42 0.0 0.0 0.00 0.00 0.00 61 1015.3
20260506091539 41 42 0.0 0.0 0.00 0.00 0.00 58 1015.2
20260506090036 42 41 0.0 0.0 0.00 0.00 0.00 56 1015.1
20260506084539 43 41 0.0 0.0 0.00 0.00 0.00 56 1014.9